Location: Newark
(47.5000°N, 4.6167°E)
Time: 23:56:42
(UTC+00:00)

ISS - Pass Details

Date: 22 May 2021
Orbit: 417 x 422 km, 51.6° (Epoch: 14 June)

Event Time Altitude Azimuth Distance (km) Brightness Sun altitude
Rises 20:55:52 0° 283° (WNW) 2,365 0.9 -12.8°
Reaches altitude 10° 20:58:03 10° 291° (WNW) 1,502 0.0 -13.0°
Maximum altitude 21:01:15 39° 2° (N) 649 -2.4 -13.3°
Drops below altitude 10° 21:04:27 10° 73° (ENE) 1,504 -1.1 -13.7°
Enters shadow 21:05:26 - 78° (ENE) 1,891 -0.7 -13.8°
